Regional Weather Roundup
Issued by NWS

Home | Current Version | Previous Version | Text Only | Print | Product List | Glossary On
Versions: 1 2 3 4 5 6 7 8 9 10 11 12 13 14 15 16 17 18 19 20 21 22 23 24 25 26 27 28 29 30 31 32 33 34 35 36 37 38 39 40 41 42 43 44 45 46 47 48 49 50
000
ASUS43 KMKX 311721
RWRWI

WISCONSIN REGIONAL WEATHER ROUNDUP
NATIONAL WEATHER SERVICE MILWAUKEE/SULLIVAN WI
1100 AM CST SAT JAN 31 2015

NOTE: "FAIR" INDICATES FEW OR NO CLOUDS BELOW 12,000 FEET WITH NO
SIGNIFICANT WEATHER AND/OR OBSTRUCTIONS TO VISIBILITY.

WIZ001-002-006>008-014>016-023>028-311800-
NORTHWEST WISCONSIN

CITY           SKY/WX    TMP DP  RH WIND       PRES   REMARKS
SUPERIOR ARPT  SUNNY     23  10  57 N10       30.27R WCI  12
ASHLAND        CLOUDY    22  14  71 NW13      30.24R WCI  10
HAYWARD        CLOUDY    23  14  68 N9        30.20R WCI  13
SIREN          CLOUDY    25  17  72 NE8       30.23R WCI  16
CUMBERLAND     CLOUDY    25  18  74 N9        30.19R WCI  15
RICE LAKE      CLOUDY    26  19  74 N10       30.21S WCI  16
CHETEK         CLOUDY    26  19  76 N7        30.20R WCI  18
LADYSMITH      CLOUDY    25  19  76 N8        30.19S WCI  17
EAU CLAIRE     CLOUDY    26  18  71 NE5       30.19R WCI  20
MENOMONIE      CLOUDY    28  21  75 N9        30.20S WCI  19
NEW RICHMOND   CLOUDY    27  20  76 N10       30.20S WCI  17
OSCEOLA        CLOUDY    27  20  75 N10       30.25R WCI  17
$$

WIZ003>005-009-010-017-018-311800-
NORTH CENTRAL WISCONSIN

CITY           SKY/WX    TMP DP  RH WIND       PRES   REMARKS
MANITOWISH WTR FLURRIES  20  17  85 NW6       30.14R WCI  13
ARBOR VITAE    CLOUDY    22  18  83 N9        30.13S WCI  12
WOODRUFF       CLOUDY    22  18  83 N9        30.13S WCI  12
RHINELANDER    CLOUDY    22  16  78 VRB7      30.13R WCI  13
EAGLE RIVER    CLOUDY    22  16  78 N10G16    30.12R WCI  11
LAND O LAKES   LGT SNOW  22  18  85 NW8       30.13R WCI  13
PHILLIPS       CLOUDY    22  16  77 N6        30.15R WCI  14
TOMAHAWK       CLOUDY    23  17  80 CALM      30.15R
MEDFORD        CLOUDY    24  18  80 N8        30.15R WCI  15
MERRILL        CLOUDY    24  19  78 N7        30.15R WCI  16
$$

WIZ029-030-035-036-043>047-311800-
CENTRAL WISCONSIN

CITY           SKY/WX    TMP DP  RH WIND       PRES   REMARKS
WAUSAU         CLOUDY    24  17  74 N3        30.15R
MOSINEE        CLOUDY    23  18  80 N6        30.16R WCI  16
MARSHFIELD     CLOUDY    25  18  74 N5        30.16R WCI  19
STEVENS POINT  CLOUDY    23  15  72 N5        30.17S WCI  17
WAUPACA        CLOUDY    29  19  64 NW8       30.18R WCI  21
WAUTOMA        CLOUDY    29  19  66 NW7       30.18R WCI  22
WISC RAPIDS    CLOUDY    26  17  68 NW7       30.19R WCI  18
CAMP DOUGLAS   CLOUDY    30  25  80 NW7       30.18R WCI  23
$$

WIZ011>013-019>022-031-037>040-048>050-311800-
NORTHEAST WISCONSIN

CITY           SKY/WX    TMP DP  RH WIND       PRES   REMARKS
ANTIGO         CLOUDY    22  18  81 NW8       30.13S WCI  13
SHAWANO        CLOUDY    27  16  63 CALM      30.18R
OCONTO         CLOUDY    25  15  66 CALM      30.18R
STURGEON BAY   CLOUDY    23  12  63 W5        30.19S WCI  17
GREEN BAY      CLOUDY    26  17  68 NW7       30.18R WCI  18
MANITOWOC      CLOUDY    29  20  69 NW8       30.18R WCI  21
APPLETON       CLOUDY    27  16  63 NW8       30.17R WCI  18
CLINTONVILLE   CLOUDY    27  16  63 NW5       30.17R WCI  21
OSHKOSH        CLOUDY    28  18  66 W8        30.17R WCI  20
$$

WIZ032>034-041-042-053>061-311800-
SOUTHWEST WISCONSIN

CITY           SKY/WX    TMP DP  RH WIND       PRES   REMARKS
LA CROSSE      CLOUDY    29  19  66 CALM      30.20R
SPARTA         CLOUDY    28  19  69 CALM      30.20S
VIROQUA        CLOUDY    28  22  77 N3        30.16S
BOSCOBEL       CLOUDY    29  19  66 S7        30.21R WCI  22
PRAIRIE DU CHI CLOUDY    29  19  66 CALM      30.21S
PLATTEVILLE    CLOUDY    31  24  75 SW8       30.19R WCI  23
$$

WIZ056-057-062-063-064-067-068-311800-
SOUTH CENTRAL WISCONSIN

CITY           SKY/WX    TMP DP  RH WIND       PRES   REMARKS
REEDSBURG      CLOUDY    29  20  69 W3        30.18R
BARABOO/DELLS  CLOUDY    29  19  68 W3        30.17R
LONE ROCK      CLOUDY    27  19  72 CALM      30.20R
MINERAL POINT  CLOUDY    32  23  69 W7        30.17S WCI  26
MADISON        CLOUDY    30  19  63 VRB3      30.17S
MIDDLETON      PTSUNNY   32  20  60 W7        30.18S WCI  26
WATERTOWN      SUNNY     30  20  65 W7        30.17S WCI  23
MONROE         PTSUNNY   32  23  69 W10       30.17S WCI  24
JANESVILLE     SUNNY     32  21  64 W7        30.19R WCI  26
$$

WIZ051-052-058>065-066-070>072-311800-
SOUTHEAST WISCONSIN

CITY           SKY/WX    TMP DP  RH WIND       PRES   REMARKS
MILWAUKEE      PTSUNNY   33  18  53 W9        30.17F WCI  25
WAUKESHA       SUNNY     28  18  64 W9        30.18S WCI  20
MILWAUKEE/TIMM SUNNY     30  18  59 W10       30.18S WCI  21
RACINE         MOSUNNY   33  19  56 W10       30.19S WCI  25
BURLINGTON     PTSUNNY   30  20  65 W7        30.18F WCI  23
KENOSHA        PTSUNNY   34  21  59 W10       30.18S WCI  26
FOND DU LAC    CLOUDY    28  18  66 W7        30.18R WCI  21
SHEBOYGAN      CLOUDY    29  18  63 NW9       30.17R WCI  20
WEST BEND      CLOUDY    32  18  55 W8        30.17R WCI  25
JUNEAU         CLOUDY    28  19  70 W5        30.19R WCI  22
$$

LSZ147-162-311800-
LAKE SUPERIOR

STATION/POSITION TIME  TEMP    WIND        PRES    WAVE
                       AIR SEA DIR/SP/G            HT/PER
                 (UTC) (F)     (DEG/KT/KT) (MB)    (FT/S)
DEVILS ISLAND    1700   18     350/ 13/ 15 1026.2R
PORT WING        1640   21     350/ 11/ 15 1025.1R
SAXON HARBOR     1600   24     350/ 13/ 17 1023.0R
$$

LMZ867-665-643>646-311800-
LAKE MICHIGAN

STATION/POSITION TIME  TEMP    WIND        PRES    WAVE
                       AIR SEA DIR/SP/G            HT/PER
                 (UTC) (F)     (DEG/KT/KT) (MB)    (FT/S)
NORTHPORT PIER   1621   23     270/  4/ 10 1021.7R
SISTER BAY       1613   26     310/  7/  8   N/A
KEWAUNEE LAKESHO 1700   26     300/  6/ 10 1021.0R
SHEBOYGAN LAKESH 1700   29     310/ 12/ 14 1023.0R
PORT WASHINGTON  1600   31     280/  9/ 15 1022.4
MILWAUKEE LAKESH 1700   32     280/  7/ 10   N/A
KENOSHA   LAKESH 1700   32     280/ 12/ 17 1022.0F
$$

TC  - TEMPERATURE IN CELSIUS
VSB - VISIBILITY IN STATUTE MILES
WCI - WIND CHILL INDEX
HX  - HEAT INDEX




USA.gov is the U.S. government's official web portal to all federal, state and local government web resources and services.